STARLINK-31671, 59516

Orbit data source: Space-Track

STARLINK-31671, 59516 is a payload satellite owned by SpaceX/Seattle (US) in LEO that was launched on Wed, 17 Apr 2024 UTC via an FALCON 9 launch vehicle from the Air Force Eastern Test Range (AFETR). Payload-class satellites include a variety of spacecraft equipped with specific instruments for various scientific and technological missions. These include communications satellites like Starlink; space stations such as the ISS; scientific satellites like the Hubble; Earth observation satellites from companies like Planet Labs, Umbra, and HawkEye 360; GPS; miniature CubeSats for education and research; and military/defense satellites.

Loading next visibility...
Identifier
59516, 2024-073F
Orbit
LEO
Country
Flag of USUS
Related business
Manufacturer
SpaceX/Seattle
Mission
Operational spacecraft
Bus & Motor
STARLINK V2M, Unknown motor
Mass
730 kg wet, ~700 kg dry
Launch date (UTC)
2024-04-17 (1 year ago)
Launch vehicle
FALCON 9
Launch site
Air Force Eastern Test Range (AFETR)
Object type
Payload
Rocket body
Debris
Shape & HBR
Unknown
Radar Cross Section
Large (>1 m²)

Expand to show TLE details & history
Last TLE update: 16 hours ago

TLE from 16 hours ago
0 STARLINK-31671
1 59516U 24073F   25260.22414212 -.00007405  00000-0 -25962-3 0  9990
2 59516  42.9978 217.8889 0001933 288.2043  71.8598 15.27602592 79646
Epoch: 2025-09-17T05:22Z
TLE epoch observation values (Epoch: 2025-09-17T05:22:45.879Z)
Latitude
-0.00001°
Longitude
140.79456°
Altitude
482.344 km
Speed
7.626 km/s
True Right ascension
14h 31m 33s
True Declination
0° 00' 00"
Sunlit
Object was in daylight at epoch
Visualization orbit readout
Latitude
Unknown
Longitude
Unknown
Altitude
Unknown
Speed
Unknown
Apparent Right ascension
Unknown
Apparent Declination
Unknown
Sunlit
N/A
Visualization observer readout
Local Sidereal Time
14:34:27
Azimuth
Unknown
Elevation
Unknown
Doppler factor
Unknown
Orbital elements
Apogee altitude
486.254 km
Perigee altitude
483.6 km
Semi-major axis
6,863.064 km
Eccentricity
0.00019
Inclination
42.9978°
RAAN
217.8889°
Arg. of periapsis
288.2043°
True anomaly
71.88085°
Mean anomaly
71.8598°
Eccentric anomaly
71.87033°
Mean motion
3.81739 °/min
Orbital period
94.31 mins
BSTAR
-0.00025962
Loading maneuver chart data...
Computing Atmospheric mass density...
Loading historical data...
Loading historical data...
Loading historical data...
Loading historical data...
Loading historical data...
Loading historical data...
Loading historical data...

Documentation

Showing up to 5 results
|